SANTA FE DAM CA US current weather conditions

sailwx.info

Wind from 224 at 8 knots gusting 15

Air temperature 31.1° C
Dewpoint 13.8° C

Last reported at 2016-Jun-25 23:57 UTC.
Time now 2016-Jun-26 01:11 UTC

Location: N 34°08' W 117°57'.
View on Google Maps.

See reports from other nearby stations

  
Tides and Currents Weather Stations Pressure Air Temp Water Temp Dewpoint Dewpoint Depression Visibility Wind Speed Wind Dir Waves Ship Positions
date/time (UTC)wind fromknots sea level pressurealtimeterstation pressurevisibilityair tempwater tempwave heightnotes
2016-Jun-25 23:57 224 8 gusting 15 31.1
2016-Jun-25 22:57 225 8 gusting 15 32.8
2016-Jun-25 21:57 230 9 gusting 16 32.2
2016-Jun-25 20:57 220 6 gusting 16 33.3
2016-Jun-25 19:57 241 6 gusting 13 31.7
2016-Jun-25 18:57 233 4 gusting 11 30.0
2016-Jun-25 17:57 131 2 gusting 9 28.9
2016-Jun-25 16:57 279 3 gusting 7 25.6
2016-Jun-25 15:57 226 2 gusting 6 24.4
2016-Jun-25 14:57 329 0 gusting 4 21.7
2016-Jun-25 13:57 049 0 gusting 3 19.4
2016-Jun-25 12:57 357 2 gusting 3 15.6
2016-Jun-25 11:57 353 1 gusting 3 16.7
2016-Jun-25 10:57 195 1 gusting 3 18.3
2016-Jun-25 09:57 266 1 gusting 6 18.3
2016-Jun-25 08:57 233 4 gusting 6 17.8
2016-Jun-25 07:57 252 3 gusting 6 17.2
2016-Jun-25 06:57 233 2 gusting 7 17.8
2016-Jun-25 05:57 247 4 gusting 7 18.9
2016-Jun-25 04:57 240 3 gusting 6 20.0
2016-Jun-25 03:57 238 3 gusting 7 21.1
2016-Jun-25 02:57 214 4 gusting 11 22.2
2016-Jun-25 01:57 216 6 gusting 15 25.0
2016-Jun-25 00:57 220 7 gusting 16 26.7
2016-Jun-24 23:57 226 7 gusting 17 30.0
2016-Jun-24 22:57 205 7 gusting 15 31.7
2016-Jun-24 21:57 206 7 gusting 15 31.7
2016-Jun-24 20:57 210 7 gusting 15 31.1
2016-Jun-24 19:57 209 6 gusting 12 30.0
2016-Jun-24 18:57 251 5 gusting 18 28.9
2016-Jun-24 17:57 020 3 gusting 9 26.7
2016-Jun-24 16:57 341 4 gusting 8 25.0
2016-Jun-24 15:57 215 4 gusting 7 22.8
2016-Jun-24 14:57 092 1 gusting 5 21.1
2016-Jun-24 13:57 006 2 gusting 4 18.9
2016-Jun-24 12:57 241 2 gusting 5 17.8
2016-Jun-24 11:57 213 2 gusting 4 16.7
2016-Jun-24 10:57 243 2 gusting 4 15.6
2016-Jun-24 09:57 238 3 gusting 6 17.2
2016-Jun-24 08:57 243 2 gusting 4 17.8
2016-Jun-24 07:57 228 2 gusting 6 18.3
2016-Jun-24 06:57 246 3 gusting 6 19.4
2016-Jun-24 05:57 231 2 gusting 4 18.9
2016-Jun-24 04:57 217 3 gusting 35 21.1
2016-Jun-24 03:57 228 3 gusting 6 22.8
2016-Jun-24 02:57 225 4 gusting 10 24.4
2016-Jun-24 01:57 230 6 gusting 12 27.8